Regional Weather Roundup
Issued by NWS Green Bay, WI

Home | Current Version | Previous Version | Graphics & Text | Print | Product List | Glossary Off
Versions: 1 2 3 4 5 6 7 8 9 10 11 12 13 14 15 16 17 18 19 20 21 22 23 24 25 26 27 28 29 30 31 32 33 34 35 36 37 38 39 40 41 42 43 44 45 46 47 48 49 50

000
ASUS43 KGRB 270111
RWRGRB

NORTH-CENTRAL AND NORTHEAST WISCONSIN REGIONAL WEATHER ROUNDUP
NATIONAL WEATHER SERVICE GREEN BAY WI
800 PM CDT TUE JUL 26 2016

WIZ005-009-010>012-018-019-270200-
NORTH CENTRAL WISCONSIN

CITY           SKY/WX    TMP DP  RH WIND       PRES   REMARKS
IRONWOOD       CLOUDY    77  66  69 CALM      29.93S
MANITOWISH WTR TSTM      69  69 100 E5        29.99R
ARBOR VITAE    CLOUDY    78  65  63 N10       30.00R
EAGLE RIVER    CLOUDY    71  58  64 NW7G24    29.99R
LAND O LAKES   CLOUDY    66  64  91 CALM      30.01R
RHINELANDER    CLEAR     79  65  62 W7        29.99R
PHILLIPS       CLOUDY    79  67  66 SW3       29.97S
ANTIGO         CLEAR     78  66  67 CALM      29.99S
TOMAHAWK       CLEAR     79  63  57 SW3       29.98S
MERRILL        CLEAR     81  67  61 W7        29.98F
$$

WIZ013-073-270200-
NORTHEAST WISCONSIN

CITY           SKY/WX    TMP DP  RH WIND       PRES   REMARKS
IRON MOUNTAIN  CLEAR     81  64  56 SW5       29.93R
MARINETTE      CLEAR    N/A N/A N/A SW7       29.93S
OCONTO         CLEAR     80  70  71 SW3       29.93S
$$

WIZ017-030-035>037-045-270200-
CENTRAL WISCONSIN

CITY           SKY/WX    TMP DP  RH WIND       PRES   REMARKS
MEDFORD        CLEAR     77  67  69 SW6       29.99S
WAUSAU         CLEAR     80  66  62 SW8       29.96F
MOSINEE        CLEAR     79  66  65 SW7       30.00S
MARSHFIELD     CLEAR     79  67  66 SW7       29.99S
WISC RAPIDS    CLEAR     82  65  56 SW6       29.99F
STEVENS POINT  CLEAR     81  65  59 W7        29.99S
WAUPACA        CLEAR     83  67  58 SW5       29.97F
SHAWANO        CLEAR     83  66  55 W3        29.96S
CLINTONVILLE   CLEAR     81  66  61 SW5       29.95F
WAUTOMA        CLEAR     82  69  64 SW5       29.99S
$$

WIZ038-039-048-051-270200-
FOX VALLEY

CITY           SKY/WX    TMP DP  RH WIND       PRES   REMARKS
NWS GREEN BAY  CLEAR     80  70  71 SW6       29.96S
APPLETON       PTCLDY    81  64  57 SW7       29.97R
OSHKOSH        CLEAR     80  67  64 SW5       29.98R
FOND DU LAC    CLEAR     80  67  64 CALM      29.99S
$$

WIZ022-050-052-270200-
EAST CENTRAL WISCONSIN

CITY           SKY/WX    TMP DP  RH WIND       PRES   REMARKS
EPHRAIM        FAIR      80  67  64 SW7       29.92F
WASHINGTON ISL NOT AVBL
STURGEON BAY   CLEAR     81  68  64 SW9       29.95F
MANITOWOC      CLEAR     76  63  64 CALM      29.98R
SHEBOYGAN      CLEAR     78  64  61 S8        29.98S
$$

LMZ563-521-522-541>543-270200-
LAKESHORE

STATION/POSITION TIME  TEMP    WIND        PRES    VSBY  WAVE
                       AIR SEA DIR/SP/G                  HT/PER
                 (UTC) (F)     (DEG/KT/KT) (MB)    (MI)  (FT/S)
SHEBOYGAN LKSHOR 0100   76     190/ 13/ 13 1014.9F
KEWAUNEE LKSHORE 0018   65                   N/A
ALGOMA MARINA    0043          230/  8/ 10   N/A
NORTHPORT PIER   0000   82     160/  3/  6 1013.2R
N MID LAKE BUOY  0050   73 70  210/ 17/ 21 1012.1F         3/ 4
S GREEN BAY BUOY 0000   80 76  210/ 10/ 12   N/A
CHAMBERS ISLAND  0000   81     190/  5/ 14 1012.9F
MENOMINEE LKSHOR 0018   83                   N/A
$$



USA.gov is the U.S. government's official web portal to all federal, state and local government web resources and services.